FW3803 Weather Reports


time (UTC)temp
C
wind
direction
speed
KPH
gust
KPH
rain 1hr
cm
rain 24hr
cm
rain mn
cm
humidity
%
barometer
mb
20260507192016 11 0.0 1.6 0.00 3.12 3.12 89 1020.9
20260507191516 12 0.0 0.0 0.00 3.12 3.12 89 1021.0
20260507191036 12 0.0 0.0 0.00 3.12 3.12 89 1021.0
20260507190515 12 0.0 1.6 0.00 3.12 3.12 89 1021.1
20260507190016 11 0.0 1.6 0.00 3.12 3.12 89 1020.9
20260507185516 11 0.0 3.2 0.00 3.12 3.12 88 1021.1
20260507185056 11 0.0 1.6 0.00 3.12 3.12 89 1021.1
20260507184516 11 0.0 1.6 0.00 3.12 3.12 88 1021.1
20260507184016 11 0.0 1.6 0.00 3.12 3.12 90 1021.1
20260507183516 11 0.0 0.0 0.00 3.12 3.12 89 1021.1
20260507183016 11 0.0 0.0 0.00 3.12 3.12 90 1021.1
20260507182516 11 0.0 1.6 0.00 3.12 3.12 89 1021.1
20260507182036 11 0.0 0.0 0.00 3.12 3.12 88 1021.0
20260507181516 11 0.0 3.2 0.00 3.12 3.12 88 1021.1
20260507181016 11 0.0 1.6 0.00 3.12 3.12 89 1021.1
20260507180516 11 0.0 1.6 0.03 3.12 3.12 89 1021.2
20260507180016 11 0.0 1.6 0.03 3.12 3.12 89 1021.2
20260507175516 11 0.0 1.6 0.03 3.12 3.12 89 1021.2
20260507175041 11 0.0 1.6 0.03 3.12 3.12 88 1021.2
20260507174516 11 180 1.6 4.8 0.03 3.12 3.12 87 1021.3
20260507174015 11 0.0 3.2 0.03 3.12 3.12 88 1021.2
20260507173515 11 0.0 1.6 0.03 3.12 3.12 90 1021.3
20260507173016 11 0.0 0.0 0.03 3.12 3.12 90 1021.4
20260507172516 11 0.0 1.6 0.03 3.12 3.12 88 1021.5
20260507172016 11 0.0 3.2 0.03 3.12 3.12 89 1021.5
20260507171516 11 0.0 3.2 0.03 3.12 3.12 88 1021.4
20260507171016 11 0.0 3.2 0.03 3.12 3.12 88 1021.6
20260507170516 11 0.0 1.6 0.00 3.10 3.10 87 1021.6
20260507170036 11 0.0 1.6 0.00 3.10 3.10 88 1021.5
20260507165516 11 0.0 3.2 0.00 3.10 3.10 88 1021.6
20260507165016 11 0.0 0.0 0.00 3.10 3.10 88 1021.9
20260507164516 11 23 1.6 4.8 0.00 3.10 3.10 86 1021.7
20260507164036 12 0.0 1.6 0.00 3.10 3.10 86 1022.0
20260507163516 12 0.0 3.2 0.00 3.10 3.10 86 1021.9
20260507163016 12 0.0 3.2 0.00 3.10 3.10 87 1022.0
20260507162555 12 0.0 1.6 0.00 3.10 3.10 87 1022.1
20260507162016 12 0.0 1.6 0.00 3.10 3.10 87 1022.0
20260507161516 12 0.0 3.2 0.00 3.10 3.10 88 1022.0
20260507161017 12 23 1.6 8.0 0.00 3.10 3.10 89 1021.8
20260507160516 12 0.0 3.2 0.00 3.10 3.10 91 1022.0
20260507160056 12 0.0 0.0 0.00 3.10 3.10 91 1022.0
20260507155516 12 0.0 1.6 0.00 3.10 3.10 90 1022.1
20260507155015 12 0.0 1.6 0.00 3.10 3.10 91 1022.1
20260507154536 12 0.0 0.0 0.00 3.12 3.10 91 1021.7
20260507154016 12 0.0 1.6 0.00 3.12 3.10 90 1021.9
20260507153516 12 0.0 1.6 0.00 3.12 3.10 91 1021.9
20260507153016 12 0.0 1.6 0.00 3.12 3.10 90 1021.9
20260507152516 12 0.0 1.6 0.00 3.12 3.10 91 1021.8
20260507152016 12 0.0 1.6 0.00 3.12 3.10 92 1021.9
20260507151515 12 0.0 3.2 0.00 3.12 3.10 92 1021.9
20260507151016 12 0.0 1.6 0.00 3.12 3.10 93 1022.0
20260507150515 12 0.0 0.0 0.00 3.12 3.10 93 1021.9
20260507150015 12 0.0 1.6 0.00 3.12 3.10 92 1021.9
20260507145516 12 0.0 0.0 0.00 3.12 3.10 92 1021.9
20260507145016 12 0.0 0.0 0.00 3.12 3.10 92 1021.9
20260507144515 12 0.0 1.6 0.00 3.17 3.10 91 1021.8
20260507144035 12 0.0 1.6 0.00 3.20 3.10 92 1021.8
20260507143535 12 0.0 1.6 0.00 3.20 3.10 92 1021.5
20260507143016 12 0.0 1.6 0.00 3.20 3.10 91 1021.7
20260507142515 12 0.0 0.0 0.00 3.23 3.10 92 1021.9
20260507142015 12 0.0 1.6 0.00 3.23 3.10 92 1021.9
20260507141516 12 0.0 1.6 0.00 3.23 3.10 92 1021.9
20260507141016 12 0.0 1.6 0.00 3.23 3.10 91 1021.9
20260507140515 12 0.0 1.6 0.00 3.23 3.10 90 1022.1
20260507140015 12 0.0 3.2 0.00 3.23 3.10 90 1021.9
20260507135515 13 158 1.6 4.8 0.00 3.23 3.10 92 1021.9
20260507135056 13 0.0 1.6 0.00 3.23 3.10 94 1022.0
20260507134515 13 0.0 1.6 0.00 3.25 3.10 94 1022.0
20260507134016 13 0.0 1.6 0.00 3.25 3.10 95 1021.9
20260507133516 13 0.0 1.6 0.00 3.25 3.10 95 1021.8
20260507133015 13 0.0 1.6 0.00 3.25 3.10 95 1021.9
20260507132515 13 0.0 1.6 0.00 3.25 3.10 95 1021.5
20260507132016 13 0.0 1.6 0.00 3.25 3.10 95 1021.5
20260507131516 13 0.0 1.6 0.00 3.25 3.10 95 1021.4
20260507131015 13 0.0 1.6 0.00 3.25 3.10 95 1021.5
20260507130515 13 0.0 1.6 0.00 3.25 3.10 95 1021.4
20260507130015 13 0.0 0.0 0.00 3.25 3.10 95 1021.4
20260507125515 13 0.0 1.6 0.00 3.25 3.10 95 1021.5
20260507125036 13 0.0 0.0 0.00 3.25 3.10 95 1021.7
20260507124516 13 0.0 0.0 0.00 3.25 3.10 95 1021.7
20260507124016 13 0.0 1.6 0.00 3.25 3.10 95 1021.8
20260507123515 13 0.0 0.0 0.00 3.25 3.10 95 1021.8
20260507123055 13 0.0 0.0 0.00 3.25 3.10 95 1021.7
20260507122516 12 0.0 0.0 0.00 3.25 3.10 95 1021.7
20260507122015 12 0.0 0.0 0.00 3.25 3.10 95 1021.5
20260507121536 12 0.0 0.0 0.00 3.25 3.10 95 1021.4
20260507121121 12 0.0 0.0 0.00 3.25 3.10 95 1021.5
20260507120516 12 0.0 0.0 0.00 3.25 3.10 95 1021.4
20260507120015 12 0.0 0.0 0.03 3.25 3.10 95 1021.6
20260507115516 12 0.0 0.0 0.03 3.25 3.10 95 1021.5
20260507115015 12 0.0 1.6 0.03 3.25 3.10 95 1021.7
20260507114516 12 0.0 0.0 0.03 3.25 3.10 95 1021.8
20260507114015 12 0.0 0.0 0.05 3.25 3.10 95 1021.8
20260507113515 12 0.0 1.6 0.05 3.25 3.10 95 1021.5
20260507113016 12 0.0 1.6 0.15 3.25 3.10 95 1021.7
20260507112536 12 0.0 0.0 0.30 3.25 3.10 95 1021.6
20260507112016 12 0.0 0.0 0.43 3.25 3.10 95 1021.5
20260507111536 12 0.0 0.0 0.53 3.25 3.10 95 1021.2
20260507111016 12 0.0 1.6 0.61 3.25 3.10 94 1021.1
20260507110516 12 0.0 0.0 0.79 3.25 3.10 95 1021.5
20260507110016 12 0.0 0.0 0.97 3.23 3.07 94 1021.6
20260507105535 12 0.0 0.0 1.30 3.23 3.07 94 1021.4
20260507105015 12 0.0 0.0 1.47 3.23 3.07 94 1021.0
20260507104515 12 0.0 1.6 1.75 3.23 3.07 94 1021.0
20260507104016 12 0.0 1.6 1.83 3.20 3.05 94 1021.1
20260507103518 12 0.0 1.6 2.18 3.20 3.05 94 1021.0
20260507103016 13 0.0 4.8 2.41 3.10 2.95 93 1021.2
20260507102517 13 0.0 4.8 2.64 2.95 2.79 93 1021.1
20260507102015 13 0.0 3.2 2.57 2.82 2.67 93 1021.2
20260507101516 13 0.0 1.6 2.51 2.72 2.57 93 1021.0
20260507101015 13 0.0 3.2 2.46 2.64 2.49 93 1020.7
20260507100516 13 248 1.6 4.8 2.29 2.46 2.31 93 1020.7
20260507100015 14 0.0 6.4 2.08 2.26 2.11 93 1021.1
20260507095515 14 0.0 1.6 1.78 1.93 1.78 93 1021.1
20260507095015 15 135 1.6 6.4 1.60 1.75 1.60 92 1020.9
20260507094541 15 0.0 3.2 1.32 1.47 1.32 91 1020.5
20260507094015 15 338 1.6 3.2 1.22 1.37 1.22 90 1020.4
20260507093515 16 338 1.6 4.8 0.86 1.02 0.86 90 1020.7
20260507093015 17 158 1.6 4.8 0.53 0.69 0.53 90 1020.6
20260507092515 18 0.0 3.2 0.15 0.30 0.15 94 1020.3
20260507092016 18 0.0 1.6 0.10 0.25 0.10 94 1020.1
20260507091515 18 0.0 0.0 0.05 0.20 0.05 94 1020.4
20260507091015 18 0.0 0.0 0.03 0.18 0.03 93 1020.4
20260507090515 18 0.0 0.0 0.03 0.18 0.03 93 1020.3
20260507090015 18 0.0 0.0 0.03 0.18 0.03 93 1020.3
20260507085515 18 0.0 0.0 0.00 0.15 0.00 93 1020.1
20260507085015 18 0.0 1.6 0.00 0.15 0.00 93 1020.2
20260507084515 18 0.0 1.6 0.00 0.15 0.00 93 1020.3
20260507084015 18 0.0 1.6 0.00 0.15 0.00 93 1020.2
20260507083515 18 0.0 1.6 0.00 0.15 0.00 93 1020.1
20260507083015 18 0.0 1.6 0.00 0.15 0.00 93 1020.1
20260507082516 18 0.0 0.0 0.00 0.15 0.00 93 1020.1
20260507082015 18 0.0 1.6 0.00 0.15 0.00 93 1019.9
20260507081535 18 0.0 1.6 0.00 0.15 0.00 93 1019.7
20260507081015 18 0.0 1.6 0.00 0.15 0.00 93 1019.8
20260507080515 18 0.0 0.0 0.00 0.15 0.00 93 1019.7
20260507080015 18 0.0 0.0 0.00 0.15 0.00 93 1019.5
20260507075535 18 0.0 1.6 0.00 0.15 0.00 93 1019.5
20260507075015 18 0.0 1.6 0.00 0.15 0.00 93 1019.2
20260507074515 18 0.0 1.6 0.00 0.15 0.00 93 1019.1
20260507074015 18 0.0 0.0 0.00 0.15 0.00 93 1019.2
20260507073516 18 0.0 1.6 0.00 0.15 0.00 93 1019.4
20260507073015 18 0.0 3.2 0.00 0.15 0.00 92 1019.5
20260507072535 18 0.0 1.6 0.00 0.15 0.00 92 1019.6
20260507072035 18 0.0 0.0 0.00 0.15 0.00 93 1019.6
20260507071515 18 0.0 1.6 0.00 0.15 0.00 93 1019.7
20260507071015 18 0.0 0.0 0.00 0.15 0.00 92 1020.0
20260507070515 18 0.0 1.6 0.00 0.15 0.00 93 1020.1
20260507070015 18 0.0 1.6 0.00 0.15 0.00 93 1019.9
20260507065515 18 0.0 0.0 0.00 0.15 0.00 93 1019.9
20260507065015 18 0.0 1.6 0.00 0.15 0.00 93 1019.9
20260507064535 18 0.0 1.6 0.00 0.15 0.00 93 1019.7
20260507064015 18 0.0 1.6 0.00 0.15 0.00 93 1019.7
20260507063515 18 0.0 1.6 0.00 0.15 0.00 93 1019.8
20260507063036 18 0.0 6.4 0.00 0.15 0.00 93 1019.7
20260507062540 18 0.0 6.4 0.00 0.15 0.00 93 1019.6
20260507062015 18 0.0 0.0 0.00 0.15 0.00 93 1019.5
20260507061515 18 0.0 0.0 0.00 0.15 0.00 93 1019.6
20260507061015 18 0.0 0.0 0.00 0.15 0.00 92 1019.6
20260507060515 18 0.0 0.0 0.00 0.15 0.00 93 1019.6
20260507060015 18 0.0 0.0 0.00 0.15 0.00 93 1019.6
20260507055515 18 0.0 0.0 0.00 0.15 0.00 92 1019.6
20260507055015 18 0.0 0.0 0.00 0.15 0.00 92 1019.7
20260507054515 18 0.0 0.0 0.00 0.15 0.00 92 1019.7
20260507054015 18 0.0 0.0 0.00 0.15 0.00 92 1019.7
20260507053515 18 0.0 0.0 0.00 0.15 0.00 92 1019.7
20260507053015 18 0.0 0.0 0.00 0.15 0.00 92 1020.0
20260507052515 18 0.0 0.0 0.00 0.15 0.00 92 1020.1
20260507052035 18 0.0 0.0 0.00 0.15 0.00 92 1020.0
20260507051516 18 0.0 0.0 0.00 0.15 0.00 92 1020.1
20260507051015 18 0.0 0.0 0.00 0.15 0.00 92 1020.1
20260507050535 18 0.0 0.0 0.00 0.15 0.00 92 1020.3
20260507050015 18 0.0 0.0 0.00 0.15 0.00 91 1020.5
20260507045515 18 0.0 0.0 0.00 0.15 0.00 91 1020.7
20260507045015 18 0.0 1.6 0.00 0.15 0.00 91 1020.9
20260507044515 18 0.0 0.0 0.00 0.15 0.00 91 1021.0
20260507044015 18 0.0 1.6 0.00 0.15 0.00 91 1021.1
20260507043515 18 3 0.0 0.0 0.00 0.15 0.00 91 1021.0
20260507043015 18 0.0 0.0 0.00 0.15 0.00 91 1021.1
20260507042515 18 0.0 0.0 0.00 0.15 0.00 91 1021.0
20260507042015 18 0.0 0.0 0.00 0.15 0.00 91 1020.8
20260507041515 18 0.0 0.0 0.00 0.15 0.00 91 1020.8
20260507041015 18 0.0 0.0 0.00 0.15 0.00 91 1020.8
20260507040535 18 0.0 0.0 0.00 0.15 0.00 91 1020.9
20260507040015 18 0.0 0.0 0.00 0.15 0.15 91 1020.8
20260507035516 18 0.0 0.0 0.00 0.15 0.15 91 1020.7
20260507035016 18 0.0 1.6 0.00 0.15 0.15 91 1020.4
20260507034516 18 0.0 0.0 0.00 0.15 0.15 92 1020.7
20260507034016 18 0.0 1.6 0.00 0.15 0.15 92 1020.7
20260507033516 18 0.0 1.6 0.00 0.15 0.15 92 1020.7
20260507033016 18 0.0 1.6 0.00 0.15 0.15 92 1020.5
20260507032516 18 0.0 0.0 0.00 0.15 0.15 92 1020.3
20260507032016 18 0.0 1.6 0.00 0.15 0.15 92 1020.3
20260507031536 18 0.0 1.6 0.00 0.15 0.15 92 1020.2
20260507031016 18 0.0 1.6 0.00 0.15 0.15 92 1020.3
20260507030516 18 0.0 0.0 0.00 0.15 0.15 92 1020.3
20260507030016 18 0.0 0.0 0.00 0.15 0.15 92 1020.3
20260507025516 18 0.0 1.6 0.00 0.15 0.15 92 1020.1
20260507025056 18 0.0 0.0 0.00 0.15 0.15 91 1020.2
20260507024516 18 0.0 3.2 0.00 0.15 0.15 92 1020.1
20260507024016 18 0.0 1.6 0.00 0.15 0.15 92 1020.3
20260507023516 18 0.0 0.0 0.00 0.15 0.15 92 1020.4
20260507023036 18 0.0 0.0 0.00 0.15 0.15 92 1020.4
20260507022536 18 0.0 0.0 0.00 0.15 0.15 92 1020.5
20260507022016 18 0.0 0.0 0.00 0.15 0.15 92 1020.5
20260507021516 18 0.0 1.6 0.00 0.15 0.15 92 1020.5
20260507021016 18 0.0 0.0 0.00 0.15 0.15 92 1020.5
20260507020516 18 0.0 1.6 0.00 0.15 0.15 92 1020.8
20260507020016 18 0.0 3.2 0.00 0.15 0.15 92 1020.9
20260507015516 18 0.0 0.0 0.00 0.15 0.15 92 1021.1
20260507015036 18 0.0 0.0 0.00 0.15 0.15 92 1021.0
20260507014516 18 0.0 0.0 0.00 0.15 0.15 92 1020.8
20260507014036 18 0.0 0.0 0.00 0.15 0.15 92 1020.9
20260507013516 18 0.0 0.0 0.00 0.15 0.15 92 1020.7
20260507013016 18 0.0 0.0 0.00 0.15 0.15 91 1020.7
20260507012516 18 0.0 0.0 0.00 0.15 0.15 91 1020.6
20260507012016 18 0.0 0.0 0.00 0.15 0.15 91 1020.5
20260507011516 18 0.0 0.0 0.00 0.15 0.15 91 1020.6
20260507011016 18 0.0 0.0 0.00 0.15 0.15 90 1020.6
20260507010516 18 0.0 0.0 0.00 0.15 0.15 90 1020.6
20260507010016 18 0.0 0.0 0.00 0.15 0.15 90 1020.5
20260507005516 18 0.0 0.0 0.00 0.15 0.15 90 1020.5
20260507005016 18 0.0 0.0 0.00 0.15 0.15 89 1020.6
20260507004516 18 0.0 0.0 0.00 0.15 0.15 89 1020.4
20260507004016 18 0.0 0.0 0.00 0.15 0.15 88 1020.6
20260507003516 19 0.0 0.0 0.00 0.15 0.15 88 1020.5
20260507003016 19 0.0 0.0 0.00 0.15 0.15 88 1020.6
20260507002516 19 0.0 0.0 0.00 0.15 0.15 87 1020.6
20260507002016 19 0.0 0.0 0.00 0.15 0.15 87 1020.7
20260507001516 19 0.0 0.0 0.00 0.15 0.15 87 1020.6
20260507001036 20 0.0 0.0 0.00 0.15 0.15 87 1020.8
20260507000516 20 0.0 0.0 0.00 0.15 0.15 87 1020.9
20260507000016 20 0.0 0.0 0.00 0.15 0.15 87 1020.8
20260506235516 20 0.0 0.0 0.00 0.15 0.15 86 1020.8
20260506235036 20 0.0 0.0 0.00 0.15 0.15 86 1020.6
20260506234516 20 0.0 0.0 0.00 0.15 0.15 86 1020.5
20260506234016 20 0.0 0.0 0.00 0.15 0.15 86 1020.4
20260506233516 20 0.0 0.0 0.00 0.15 0.15 86 1020.2
20260506233036 20 0.0 0.0 0.00 0.15 0.15 85 1020.2
20260506232516 20 0.0 1.6 0.00 0.15 0.15 85 1020.2
20260506232016 20 0.0 0.0 0.00 0.15 0.15 85 1020.3
20260506231516 20 0.0 1.6 0.00 0.15 0.15 85 1020.3
20260506231016 20 0.0 0.0 0.00 0.15 0.15 85 1020.3
20260506230518 20 0.0 0.0 0.00 0.15 0.15 84 1020.4
20260506230036 20 0.0 0.0 0.00 0.15 0.15 84 1020.3
20260506225516 20 0.0 1.6 0.00 0.15 0.15 83 1020.3
20260506225016 21 0.0 0.0 0.00 0.15 0.15 83 1020.4
20260506224516 21 0.0 1.6 0.00 0.15 0.15 83 1020.3
20260506224036 21 0.0 0.0 0.00 0.15 0.15 83 1020.4
20260506223516 21 0.0 0.0 0.00 0.15 0.15 83 1020.3
20260506223016 21 0.0 0.0 0.00 0.15 0.15 82 1020.3
20260506222536 21 0.0 0.0 0.00 0.15 0.15 82 1020.3
20260506222016 21 0.0 0.0 0.00 0.15 0.15 82 1020.3
20260506221516 21 0.0 1.6 0.00 0.15 0.15 82 1020.3
20260506221016 21 0.0 0.0 0.00 0.15 0.15 81 1020.3
20260506220516 21 0.0 1.6 0.00 0.15 0.15 81 1020.2
20260506220036 21 0.0 1.6 0.00 0.15 0.15 81 1020.2
20260506215516 21 0.0 1.6 0.00 0.15 0.15 81 1020.2
20260506215036 21 0.0 1.6 0.00 0.15 0.15 81 1020.2
20260506214516 21 0.0 3.2 0.00 0.15 0.15 80 1020.2
20260506214016 21 0.0 1.6 0.00 0.15 0.15 81 1020.3
20260506213516 21 0.0 3.2 0.00 0.15 0.15 80 1020.3
20260506213016 21 113 1.6 4.8 0.00 0.15 0.15 81 1020.5
20260506212516 21 0.0 3.2 0.00 0.15 0.15 81 1020.5
20260506212036 21 0.0 3.2 0.00 0.15 0.15 81 1020.6
20260506211516 21 0.0 1.6 0.00 0.15 0.15 80 1020.6
20260506211016 21 158 1.6 8.0 0.00 0.15 0.15 82 1020.4
20260506210516 21 0.0 3.2 0.00 0.15 0.15 81 1020.4
20260506210016 20 113 1.6 9.7 0.00 0.15 0.15 79 1020.3
20260506205516 20 0.0 4.8 0.00 0.15 0.15 81 1020.1
20260506205016 20 0 1.6 8.0 0.00 0.15 0.15 82 1020.3
20260506204516 20 0.0 1.6 0.00 0.15 0.15 83 1020.4
20260506204016 20 0.0 1.6 0.00 0.15 0.15 82 1020.3
20260506203556 20 0.0 1.6 0.00 0.15 0.15 82 1020.4
20260506203016 20 315 1.6 8.0 0.00 0.15 0.15 81 1020.5
20260506202516 20 0.0 1.6 0.00 0.15 0.15 83 1020.4
20260506202016 20 0.0 3.2 0.00 0.15 0.15 83 1020.2
20260506201516 20 0.0 3.2 0.00 0.15 0.15 82 1020.1
20260506201016 20 0.0 1.6 0.00 0.15 0.15 83 1020.0
20260506200516 20 0.0 1.6 0.00 0.15 0.15 82 1019.8
20260506200016 20 0.0 3.2 0.00 0.15 0.15 82 1020.0
20260506195516 20 0 1.6 6.4 0.00 0.15 0.15 82 1019.6
20260506195036 20 270 1.6 3.2 0.00 0.15 0.15 83 1019.4
20260506194516 20 0.0 3.2 0.00 0.15 0.15 84 1019.4
20260506194016 20 0.0 3.2 0.00 0.15 0.15 84 1019.6
20260506193516 20 113 1.6 3.2 0.00 0.15 0.15 84 1019.5
20260506193036 20 0.0 4.8 0.00 0.15 0.15 84 1019.8
20260506192536 20 0.0 1.6 0.00 0.15 0.15 84 1019.8